Location: Isola Pescaroli
(45.0500°N, 10.1667°E)
Time: 01:45:15
(UTC+00:00)

SL-4 R/B - Pass Details

Date: 17 June 2021
Orbit: 428 x 662 km, 51.6° (Epoch: 29 July)

Event Time Altitude Azimuth Distance (km) Brightness Sun altitude
Exits shadow 00:05:22 28° 273° (W) 951 3.1 -20.8°
Maximum altitude 00:07:04 52° 337° (NNW) 605 2.4 -20.7°
Drops below altitude 10° 00:10:38 10° 55° (NE) 1,613 5.0 -20.6°
Sets 00:12:44 0° 61° (ENE) 2,460 6.0 -20.5°
